sat.trackr.live / text

‹ back to catalog

STARLINK-36550

NORAD 67495 · 2026-012C

PAYLOAD ACTIVE UNKNOWN

§ Identity

Operator
Country
US
Launch date
2026-01-18
Launch site
AFETR
Launch vehicle
Mass (kg)
RCS (m²)

Purposes: comms

External: N2YO · Heavens-Above · Gunter

§ Orbital elements

Epoch: 2026-09-19T09:30:48.275712Z

Period
94.27 min
Inclination
43.0002°
Eccentricity
0.0001524
Mean motion
15.27579261 rev/d
Perigee alt
482.0 km
Apogee alt
484.1 km
Semi-major
6,861.2 km
B*
2.3653e-4
RAAN
300.7330°
Arg perigee
277.2491°
Mean anomaly
82.8187°
Rev number
3,738

§ Raw data

STARLINK-365501 67495U 26012C   26262.39639208  .00006252  00000+0  23653-3 0  99962 67495  43.0002 300.7330 0001524 277.2491  82.8187 15.27579261 37382

JSON: /api/v1/satellites/67495 · /tle

For live sub-satellite position, see the globe view (requires WebGL).

§ Visibility from observer

Set your observer location to see the next 7 days of passes ≥ 10°. The values pass through the URL so the page stays shareable.

No JS? Fill the form by hand. The geolocation button needs JavaScript.